Meteógrafos Informações Meteorológicas em tempo real
Aeroporto Internacional de Brasília
15-12-2019 23:56

Temperatura atual: 24 graus 75 F    Umidade relativa: 69 %
Velocidade do vento: 03 nós 5 Km/h    Direção: 070 graus ENE
Ajuste do altímetro ..: 1020 HPA
Visibilidade: Ótima    Tempo presente: Não Disponível

Observação
Poucas nuvens a 4000 Pés.
Data Hora BRTTempo°CUmidadePressãoVentoVisib.
15/12 - 23:56   Não Disponível 24° 69% 1020 Este-nordeste/5 km/h OK
15/12 - 22:56   Não Disponível 24° 69% 1020 Este-nordeste/5 km/h OK
15/12 - 21:56   Não Disponível 24° 69% 1019 Leste/9 km/h OK
15/12 - 20:56   Poucas nuvens esparsas 26° 61% 1018 Este-sudeste/16 km/h OK
15/12 - 19:56   Poucas nuvens esparsas 26° 61% 1018 Este-sudeste/16 km/h OK
15/12 - 18:56   Poucas nuvens esparsas 28° 54% 1017 Leste/14 km/h 9999
15/12 - 17:55   Poucas nuvens esparsas 29° 48% 1017 Leste/23 km/h OK
15/12 - 16:56   Parcialmente Nublado 29° 51% 1017 Nordeste/19 km/h OK
15/12 - 15:56   Parcialmente Nublado 30° 45% 1017 Nordeste/18 km/h 9999
15/12 - 14:56   Parcialmente Nublado 29° 51% 1018 Este-nordeste/19 km/h 9999
15/12 - 13:56   Parcialmente Nublado 30° 51% 1018 Nordeste/21 km/h OK
15/12 - 12:56   Parcialmente Nublado 28° 58% 1020 Nordeste/25 km/h 9999
15/12 - 11:56   Parcialmente Nublado 27° 61% 1021 Este-nordeste/21 km/h 9999
15/12 - 10:56   Parcialmente Nublado 26° 61% 1021 Este-nordeste/23 km/h 9999
15/12 - 09:56   Parcialmente Nublado 24° 69% 1021 Este-nordeste/21 km/h OK
15/12 - 08:56   Não Disponível 23° 73% 1020 Leste/25 km/h OK
15/12 - 07:56   Não Disponível 22° 73% 1020 Leste/18 km/h OK
15/12 - 06:56   Céu Limpo 21° 73% 1019 Leste/12 km/h OK
15/12 - 05:56   Não Disponível 21° 73% 1018 Leste/10 km/h OK
15/12 - 04:56   Não Disponível 21° 73% 1018 Leste/10 km/h OK
15/12 - 03:56   Não Disponível 22° 68% 1018 Leste/12 km/h OK
15/12 - 02:56   Não Disponível 22° 73% 1019 Norte/0 km/h OK
15/12 - 01:56   Não Disponível 22° 73% 1019 Norte/0 km/h OK
15/12 - 00:56   Não Disponível 23° 73% 1019 Leste/9 km/h OK

Termo de Uso  |   Links Úteis  |   Imprensa  |  Anuncie  |  Fale Conosco  |  Versão Celular  |   Política de Privacidade

Apolo11.com - Todos os direitos reservados - 2000 - 2019

"Existem velas que iluminam tudo, menos o próprio candelabro" - Hebbel